Temperature
12 13 14 14 15 15 16 17 17 17 17 17 17 17 16 16 16 16 16 17 17 17 17 17 17 17 17 17 17 17 17 16 16 16 16 16 16 16
12 12 13 13 14 15 15 16 16 17 17 17 17 17 16 16 16 16 16 16 16 17 17 17 17 17 17 17 17 17 17 16 16 16 16 16 16 16
11 12 12 13 13 14 15 15 16 16 16 17 16 16 16 16 15 15 15 16 16 16 16 17 17 17 17 17 17 16 16 16 16 16 16 16 16 16
11 11 11 12 12 13 14 14 15 15 16 16 16 16 15 15 15 14 14 15 15 16 16 16 16 16 16 16 16 16 16 16 16 16 16 16 15 15
10 10 11 11 12 12 13 13 14 15 15 15 15 15 15 15 14 13 13 14 14 15 15 15 16 16 16 16 16 16 16 16 16 15 15 15 15 15
10 10 10 11 11 11 12 12 13 14 14 14 14 14 14 14 14 13 13 13 13 14 14 14 15 15 15 15 15 15 15 15 15 15 15 15 15 15
10 10 10 10 11 11 11 12 12 13 13 14 14 14 14 13 13 13 13 12 12 13 13 13 14 14 14 14 15 15 15 15 14 14 14 14 14 14
9 9 10 10 10 10 11 11 12 12 12 13 13 14 14 14 13 13 12 12 11 12 12 12 12 13 13 14 14 14 14 14 14 14 14 14 14 14
9 9 9 10 10 10 11 11 11 11 12 12 13 13 13 14 14 13 13 12 12 12 12 11 11 12 13 13 13 13 13 13 13 13 13 13 13 13
9 9 9 9 10 10 10 10 11 11 11 12 12 13 13 13 14 14 13 12 12 12 11 11 11 12 12 12 12 12 12 13 13 13 13 13 13 13
8 8 9 9 10 10 10 10 10 10 11 11 12 12 12 13 13 13 12 12 11 11 11 11 11 11 11 11 11 12 12 12 12 12 12 12 12 12
8 8 8 9 9 9 10 10 10 10 10 11 11 11 12 12 12 13 13 12 12 11 11 11 11 11 10 10 11 11 11 12 12 12 12 12 12 12
8 8 8 9 9 9 9 9 10 10 10 10 11 11 11 12 12 12 12 13 13 12 12 11 11 11 12 10 10 10 11 11 11 11 11 11 11 11
7 8 8 8 9 9 9 9 9 9 10 10 10 11 11 12 12 12 12 12 13 13 13 13 12 12 12 12 11 10 10 10 10 10 10 10 9 9
7 7 8 8 9 9 9 9 9 9 9 10 10 10 11 12 12 12 12 12 12 12 12 12 12 12 12 12 12 11 10 10 10 10 9 9 9 8
7 7 8 8 8 9 9 9 9 9 9 10 10 10 11 11 11 11 11 11 11 11 11 11 11 11 11 11 12 11 11 10 9 9 9 9 8 8
7 7 7 8 8 8 8 9 9 9 9 10 10 10 10 11 11 11 11 11 11 11 11 10 10 10 11 11 11 10 10 9 9 9 8 8 8 8
7 7 7 8 8 8 9 9 9 9 9 10 10 10 10 10 11 11 11 11 11 11 11 11 10 10 10 10 10 10 10 9 9 9 8 8 8 8
7 7 7 8 8 9 9 9 9 9 10 10 10 10 10 10 10 10 10 10 10 11 11 11 10 10 10 10 10 10 10 9 9 9 9 9 8 9
7 7 8 8 8 9 9 10 10 10 10 10 10 10 10 10 10 10 10 10 10 10 10 10 10 10 10 10 10 10 10 10 9 9 9 9 9 9
7 8 8 8 9 9 9 10 10 10 10 10 10 10 10 10 10 10 10 10 10 10 10 10 10 11 11 10 10 10 10 10 10 10 9 9 9 9
8 8 8 9 9 9 10 10 10 10 10 10 10 10 10 10 10 10 10 10 9 10 10 10 10 10 10 10 10 10 10 10 10 10 10 10 10 10
8 8 9 9 9 9 9 10 10 10 10 10 10 10 10 10 9 9 9 9 9 9 9 9 10 10 10 11 11 10 10 10 10 10 10 10 10 10
Wind_Speed
4 5 5 5 6 7 6 4 3 4 5 5 4 6 6 8 10 8 8 7 8 10 11 12 13 14 15 16 17 17 17 17 16 16 17 17 18 18
5 5 5 5 6 6 6 6 4 3 4 4 5 8 8 8 9 10 10 11 8 9 10 11 11 11 11 12 13 13 13 13 13 13 12 13 13 13
7 6 6 6 5 5 6 5 5 4 3 3 6 9 10 10 8 10 11 9 9 10 11 11 12 12 12 12 12 12 11 11 10 10 9 9 9 9
9 8 7 6 7 6 5 6 6 5 3 6 6 8 10 11 10 9 8 9 9 12 13 13 14 14 14 14 14 14 13 12 11 10 10 9 8 6
9 9 9 8 7 6 6 6 5 5 4 5 7 7 8 10 10 9 10 8 9 12 14 15 16 17 17 17 17 17 16 16 15 14 14 13 12 11
10 10 10 9 9 8 7 7 6 5 5 5 6 8 8 10 10 9 8 7 7 8 10 13 16 17 17 17 18 18 18 18 18 18 17 17 16 16
11 11 11 12 12 9 8 7 7 6 6 6 6 7 8 11 10 7 9 7 7 7 8 8 9 9 11 14 16 17 19 20 20 20 20 19 19 18
10 11 11 12 13 13 12 10 9 8 8 8 7 8 10 10 9 11 11 10 5 6 7 7 7 8 7 9 14 17 19 19 20 20 20 19 19 18
9 9 13 13 14 11 11 12 11 10 9 7 8 8 9 11 12 13 12 10 6 8 8 8 8 9 8 11 15 18 19 19 19 19 19 19 19 18
10 10 10 10 11 12 11 11 10 10 10 8 6 6 5 7 10 12 12 9 8 6 6 7 8 8 8 10 13 16 18 18 18 18 19 19 19 18
11 11 11 11 12 13 11 10 10 9 11 11 9 6 6 7 8 11 12 12 10 6 4 5 8 8 6 6 9 13 15 17 17 17 18 19 20 18
9 10 13 13 13 14 11 10 10 8 9 10 9 8 7 8 11 12 14 14 11 6 4 5 9 6 5 4 5 8 10 11 14 15 16 16 11 9
7 7 8 13 14 15 11 8 8 8 8 9 9 8 8 8 9 10 11 13 12 6 9 7 9 6 6 6 4 6 8 8 9 9 11 9 6 4
4 4 5 10 14 15 10 8 8 7 6 7 8 8 9 9 9 10 11 9 7 8 13 10 8 8 8 7 5 8 7 8 8 6 10 9 6 7
1 2 1 7 11 11 10 10 8 5 6 6 8 8 8 8 8 8 9 8 7 9 15 9 9 9 9 6 8 9 7 6 6 4 5 5 5 6
3 2 4 8 8 8 9 8 6 6 6 7 7 7 8 8 8 8 9 9 7 5 6 8 9 10 7 9 11 10 8 8 9 7 6 5 8 11
3 3 3 4 6 6 7 8 8 7 7 6 7 7 8 8 8 9 10 10 7 8 7 4 5 6 7 8 10 10 9 7 8 8 7 7 6 7
1 4 5 6 7 8 8 9 9 8 8 7 7 8 8 9 9 9 10 11 11 9 9 8 7 5 4 3 8 10 9 8 8 8 7 6 7 7
3 4 5 6 7 8 8 8 9 9 8 8 8 8 9 10 11 11 11 11 11 11 10 10 10 9 11 9 7 11 10 7 9 8 7 5 6 7
6 6 6 6 6 7 6 6 6 7 7 7 8 9 9 11 12 12 12 12 11 10 9 9 11 10 10 9 6 6 13 10 8 8 8 5 3 7
7 7 6 6 6 6 5 5 5 5 6 7 8 9 10 11 11 12 12 15 12 11 13 12 11 12 5 6 8 6 6 10 13 9 9 7 5 5
5 6 5 5 5 5 4 4 5 5 6 6 7 8 9 10 12 13 13 14 12 11 11 10 9 8 6 8 9 9 7 5 6 12 12 8 6 8
4 4 4 5 5 4 4 5 6 6 6 7 8 8 9 10 11 11 12 13 12 12 11 10 10 7 7 7 8 8 10 8 6 5 4 8 10 10
Wind_Direction
259 266 263 269 281 286 288 275 223 205 193 174 150 142 125 118 142 140 131 140 164 178 184 188 192 196 201 204 205 206 207 210 215 219 222 225 226 228
239 247 257 261 265 277 283 289 280 240 216 176 158 146 138 133 133 122 117 114 114 140 152 159 164 169 175 179 182 187 192 198 203 205 208 211 217 224
238 233 236 246 257 264 275 279 274 264 233 173 142 140 133 131 127 124 126 111 99 108 122 131 136 139 144 150 155 158 161 168 174 180 187 191 199 208
233 227 226 230 238 244 255 268 267 263 217 175 154 148 144 137 136 134 125 112 105 101 106 110 115 119 122 125 127 131 133 136 138 141 143 141 142 145
233 226 221 217 225 230 233 246 260 260 239 188 174 160 148 141 134 125 117 117 111 109 102 101 105 107 110 113 115 118 119 119 119 118 117 115 111 108
237 230 222 215 214 215 225 227 232 243 236 211 182 166 155 148 141 136 132 134 130 122 105 105 104 102 105 109 111 113 115 115 114 113 111 109 107 104
235 232 227 216 210 205 211 215 218 221 221 216 198 177 163 160 157 152 144 133 122 129 126 124 116 107 104 105 110 114 115 115 114 113 111 109 107 105
241 236 234 222 212 203 201 198 200 209 212 208 206 192 181 172 161 155 149 147 142 154 143 137 131 117 111 104 116 117 117 116 115 114 113 111 108 106
241 240 241 229 201 197 198 197 201 205 206 207 211 205 185 176 167 161 162 162 145 157 141 123 112 99 94 106 118 120 120 119 119 118 116 112 108 105
235 232 234 243 220 194 192 198 203 202 201 205 209 202 192 182 175 166 158 134 121 135 133 122 118 107 101 104 116 122 123 124 124 123 120 116 111 106
234 230 226 232 225 195 191 195 198 200 200 199 189 184 187 185 170 155 150 147 146 146 131 118 127 115 106 109 117 124 129 131 132 132 130 126 120 109
232 232 227 225 215 194 192 193 197 197 189 188 187 185 191 187 180 171 162 158 150 148 157 128 146 137 124 126 135 139 133 136 140 143 144 144 138 124
232 225 225 210 201 197 196 198 199 189 187 184 184 183 188 186 185 180 171 166 161 154 160 145 161 154 133 141 153 163 155 155 155 158 171 183 201 188
243 235 220 194 189 189 193 182 171 176 185 186 186 186 186 185 186 180 173 169 162 153 162 157 161 166 142 143 151 165 165 171 171 171 183 199 214 177
299 327 215 182 184 188 194 177 172 191 198 198 196 191 187 180 175 169 163 152 133 142 159 161 154 157 150 149 151 161 167 177 182 174 169 175 180 162
229 222 169 172 190 191 181 186 199 213 209 205 200 188 177 173 174 166 159 149 132 124 139 153 156 156 155 150 152 161 166 172 180 178 173 177 183 183
196 190 188 179 196 201 196 193 200 211 220 210 199 188 175 170 169 161 156 151 148 156 158 149 142 143 145 148 157 165 169 168 170 176 171 177 186 185
201 203 212 206 206 206 205 201 201 205 206 201 195 188 179 174 169 163 164 164 161 161 164 163 156 144 147 164 170 167 170 169 167 171 174 176 182 180
239 224 220 218 219 221 213 205 201 202 198 193 189 184 177 172 170 168 168 168 165 164 167 167 169 168 173 176 182 178 171 166 162 169 187 187 181 174
236 235 225 224 226 228 223 210 203 195 191 189 182 178 177 174 173 170 170 170 166 161 165 173 179 179 179 170 156 168 177 163 162 171 187 197 162 158
226 232 232 229 225 223 214 206 206 197 185 180 179 176 173 171 171 170 169 167 165 167 173 182 187 177 163 141 147 154 159 168 170 171 179 179 169 155
243 235 231 229 220 216 213 203 197 188 182 181 176 174 172 170 169 169 169 171 174 174 175 174 169 175 180 169 165 162 156 146 149 162 173 181 178 182
243 236 227 225 213 199 203 204 200 190 184 179 173 172 171 169 169 170 170 170 172 172 168 168 170 179 188 177 163 160 161 161 162 156 146 138 126 132
Height
1455 1456 1457 1458 1460 1462 1464 1468 1471 1472 1474 1476 1479 1481 1483 1486 1488 1490 1493 1495 1497 1500 1503 1506 1510 1514 1517 1521 1524 1527 1531 1534 1537 1540 1542 1545 1547 1549
1450 1450 1452 1453 1454 1457 1459 1462 1465 1469 1470 1472 1474 1477 1480 1482 1485 1487 1489 1491 1493 1496 1499 1502 1505 1509 1513 1516 1520 1523 1526 1529 1532 1534 1537 1539 1541 1543
1444 1445 1446 1448 1450 1452 1454 1457 1461 1464 1466 1469 1471 1473 1476 1479 1481 1484 1485 1488 1490 1493 1496 1499 1502 1506 1509 1512 1515 1518 1522 1524 1527 1530 1532 1534 1536 1538
1439 1440 1440 1442 1444 1446 1449 1452 1455 1458 1462 1465 1467 1470 1473 1476 1479 1481 1483 1485 1487 1490 1493 1496 1499 1503 1506 1509 1512 1515 1518 1521 1523 1526 1528 1530 1531 1533
1433 1434 1435 1436 1437 1440 1443 1446 1450 1453 1457 1461 1464 1467 1470 1473 1476 1479 1481 1483 1486 1488 1491 1494 1497 1500 1503 1506 1509 1512 1515 1518 1520 1522 1524 1526 1527 1529
1426 1427 1429 1430 1432 1434 1437 1440 1444 1448 1452 1456 1460 1463 1466 1469 1473 1476 1479 1481 1484 1486 1489 1492 1495 1498 1501 1504 1507 1509 1512 1515 1517 1519 1521 1523 1524 1526
1419 1420 1422 1424 1426 1428 1430 1433 1437 1441 1445 1450 1455 1458 1461 1465 1468 1473 1476 1479 1482 1485 1488 1490 1493 1496 1499 1502 1505 1508 1510 1513 1515 1517 1519 1521 1522 1524
1411 1413 1416 1418 1420 1422 1424 1427 1430 1434 1439 1444 1449 1452 1456 1460 1464 1469 1472 1476 1480 1484 1487 1489 1492 1495 1498 1501 1504 1506 1509 1511 1514 1516 1518 1519 1521 1522
1404 1406 1410 1412 1414 1416 1418 1421 1424 1427 1432 1438 1443 1446 1450 1454 1459 1464 1468 1472 1476 1480 1485 1488 1491 1494 1497 1500 1503 1505 1508 1510 1513 1515 1517 1518 1520 1521
1396 1399 1402 1406 1408 1410 1413 1415 1418 1421 1426 1431 1435 1441 1446 1450 1455 1460 1464 1470 1475 1480 1483 1486 1489 1493 1496 1499 1502 1505 1507 1510 1512 1514 1516 1517 1519 1520
1389 1392 1396 1399 1402 1405 1408 1411 1413 1416 1420 1425 1429 1434 1440 1445 1450 1456 1460 1465 1471 1476 1480 1483 1486 1490 1495 1498 1501 1504 1506 1509 1511 1513 1515 1516 1517 1518
1383 1386 1390 1393 1397 1400 1404 1407 1409 1412 1415 1420 1424 1429 1434 1439 1445 1450 1454 1459 1465 1472 1476 1479 1483 1487 1492 1497 1499 1502 1505 1507 1510 1512 1514 1515 1516 1517
1377 1380 1384 1388 1392 1396 1400 1403 1406 1409 1412 1415 1419 1424 1429 1434 1440 1445 1450 1455 1459 1465 1470 1475 1479 1484 1487 1491 1496 1500 1503 1506 1508 1510 1512 1514 1515 1516
1373 1376 1380 1383 1387 1392 1396 1399 1403 1406 1409 1412 1415 1419 1424 1429 1435 1441 1446 1452 1458 1462 1467 1471 1475 1479 1483 1487 1491 1496 1500 1504 1506 1509 1511 1512 1514 1515
1370 1373 1376 1379 1383 1388 1392 1396 1399 1403 1405 1408 1411 1415 1420 1425 1431 1436 1443 1449 1454 1460 1464 1469 1473 1476 1480 1484 1488 1492 1497 1501 1504 1507 1509 1511 1514 1515
1369 1371 1373 1377 1381 1385 1389 1392 1395 1399 1402 1404 1407 1412 1416 1421 1426 1431 1437 1443 1449 1455 1461 1466 1471 1475 1478 1482 1486 1489 1494 1497 1501 1505 1508 1511 1513 1515
1367 1370 1372 1375 1378 1382 1385 1388 1392 1395 1398 1401 1404 1408 1411 1416 1422 1427 1433 1438 1444 1450 1456 1462 1468 1473 1478 1481 1484 1488 1492 1496 1499 1503 1506 1509 1512 1514
1366 1368 1370 1373 1376 1379 1382 1385 1388 1391 1394 1397 1400 1404 1407 1412 1417 1423 1428 1433 1439 1445 1451 1457 1463 1470 1476 1481 1484 1486 1490 1494 1498 1501 1505 1508 1510 1513
1365 1367 1369 1371 1373 1376 1379 1382 1385 1387 1391 1394 1397 1400 1404 1409 1413 1418 1423 1429 1435 1440 1447 1453 1458 1464 1469 1475 1480 1485 1488 1492 1496 1499 1503 1506 1509 1511
1363 1365 1367 1369 1371 1373 1376 1379 1381 1384 1387 1390 1393 1397 1401 1404 1409 1414 1419 1425 1430 1436 1442 1449 1454 1459 1465 1470 1475 1481 1486 1489 1493 1496 1500 1504 1508 1510
1361 1363 1365 1366 1368 1371 1373 1376 1378 1380 1383 1386 1389 1393 1397 1400 1404 1409 1415 1421 1427 1432 1438 1444 1451 1458 1465 1471 1475 1479 1484 1488 1491 1494 1498 1501 1504 1507
1360 1361 1363 1364 1366 1368 1370 1372 1374 1377 1380 1382 1385 1389 1393 1397 1401 1406 1411 1417 1423 1429 1435 1442 1448 1455 1461 1466 1471 1475 1481 1486 1490 1494 1497 1499 1501 1503
1358 1360 1361 1362 1364 1366 1367 1369 1371 1373 1376 1379 1382 1385 1389 1393 1398 1403 1408 1413 1419 1426 1432 1438 1445 1452 1458 1464 1468 1473 1478 1482 1487 1491 1494 1497 1499 1502